Regional Weather Roundup
Issued by NWS Charleston, SC

Home | Current Version | Previous Version | Text Only | Print | Product List | Glossary On
Versions: 1 2 3 4 5 6 7 8 9 10 11 12 13 14 15 16 17 18 19 20 21 22 23 24 25 26 27 28 29 30 31 32 33 34 35 36 37 38 39 40 41 42 43 44 45 46 47 48 49 50
000
ASUS42 KCHS 301825
RWRCHS

REGIONAL WEATHER ROUNDUP
NATIONAL WEATHER SERVICE CHARLESTON SC
200 PM EDT THU OCT 30 2014

NOTE: "FAIR" INDICATES FEW OR NO CLOUDS BELOW 12,000 FEET WITH NO
SIGNIFICANT WEATHER AND/OR OBSTRUCTIONS TO VISIBILITY.

NOT ALL STATIONS ARE QUALITY CONTROLLED BY THE NATIONAL
WEATHER SERVICE. USE DATA WITH CAUTION...ESPECIALLY
DEWPOINT OBSERVATIONS.

SCZ027-030-031-034>040-042>050-301900-
...SOUTH CAROLINA...

CITY           SKY/WX    TMP DP  RH WIND       PRES   REMARKS
N CHARLESTON   MOSUNNY   74  56  53 N6        29.95F
6HR MIN TEMP:  60; 6HR MAX TEMP:  74;

WATERFRONT PRK   N/A     70 N/A N/A N8          N/A
FORT JOHNSON   NOT AVBL
JOHNS ISLAND   CLEAR     72  61  68 NE7       29.95F
PINOPOLIS      NOT AVBL
MONCKS CORNER  CLOUDY    66  59  77 NE5       29.96F
SUMMERVILLE    FAIR      70  55  60 NE6       29.97F
BEAUFORT MCAS  MOSUNNY   76  58  53 N5        29.94F
BEAUFORT ARPT  FAIR      72  59  64 NE7       29.94F
HILTON HEAD IS MOSUNNY   68  57  68 NW7       29.97F
GEORGETOWN     NOT AVBL
WALTERBORO     CLEAR     72  46  40 N6        29.96F
ORANGEBURG     SUNNY     71  46  40 NE7       29.97F
6HR MIN TEMP:  56; 6HR MAX TEMP:  71;

BARNWELL       FAIR      72  45  37 NE9       29.98F
AIKEN          FAIR      70  46  43 N8        30.00F
MANNING        FAIR      70  54  56 NE3       29.97F
KINGSTREE      NOT AVBL
COLUMBIA       SUNNY     71  41  33 NE7       29.98F
6HR MIN TEMP:  56; 6HR MAX TEMP:  71;

SUMTER         SUNNY     70  47  42 N9        29.96F
6HR MIN TEMP:  56; 6HR MAX TEMP:  70; 6HR PCP: TRACE;

FLORENCE       SUNNY     70  49  47 NE6       29.97F
6HR MIN TEMP:  56; 6HR MAX TEMP:  70;

MYRTLE BEACH   PTSUNNY   66  54  63 N12       29.97F
N MYRTLE BEACH MOSUNNY   69  53  56 NE9       29.96F
6HR MIN TEMP:  57; 6HR MAX TEMP:  70;


$$

GAZ063-065-086>088-099>101-113>116-118-119-134-136>141-150-301900-
...GEORGIA...

CITY           SKY/WX    TMP DP  RH WIND       PRES   REMARKS
SAVANNAH ARPT  MOSUNNY   72  57  60 VRB3      29.95F
6HR MIN TEMP:  65; 6HR MAX TEMP:  72;

HUNTER AAF     MOSUNNY   72  61  68 N7        29.94F
6HR MIN TEMP:  63; 6HR MAX TEMP:  72;

FORT STEWART   SUNNY     72  58  62 CALM      29.95F
6HR MIN TEMP:  64; 6HR MAX TEMP:  72;

STATESBORO     NOT AVBL
SYLVANIA       CLEAR     77  58  51 N6        29.96F
CLAXTON        FAIR      70  59  68 CALM      29.96F
THOMSON        SUNNY     70  50  48 N12       30.03F
AUGUSTA-BUSH   SUNNY     72  41  32 N9        29.97F
6HR MIN TEMP:  53; 6HR MAX TEMP:  73;

AUGUSTA-DANIEL SUNNY     71  40  32 NE3       29.99F
SWAINSBORO     FAIR      73  50  43 NE5       29.97F
VIDALIA        SUNNY     72  55  56 NW3       29.96F
ALMA           SUNNY     74  44  34 CALM      29.95F
6HR MIN TEMP:  58; 6HR MAX TEMP:  74;

WAYCROSS       MOSUNNY   75  56  51 W6        29.95F
JESUP          FAIR      77  59  53 CALM      29.94F
BRUNSWICK      CLOUDY    77  61  57 N5        29.93F
SAINT SIMONS   MOSUNNY   75  64  68 E9        29.93F
6HR MIN TEMP:  64; 6HR MAX TEMP:  76;


$$

SCZ027-028-034-036>038-045-046-048>050-GAZ119-141-301900-
...LAKE AND SUPPLEMENTAL COASTAL OBSERVATIONS...

STATION/POSITION TIME  TEMP    WIND        PRES    WAVE   SWELL
                       AIR SEA DIR/SP/G            HT/PER HT/PER/DIR
                 (UTC) (F)     (DEG/KT/KT) (MB)    (FT/S) (FT/S/D)
UPR LAKE MARION  NOT AVBL
WINYAH BAY       1800   61     340/  5     1015.0S
LAKE MURRAY      1800   67      10/  2/  7 1015.2F
ACE BASIN NERRS  1800   74     350/  3     1014.0F
FORT PULASKI     1800   69     280/  5/  6 1014.4F
SAPELO ISLAND    NOT AVBL

$$

ANZ835-935-AMZ111-154-330-350-352-354-374-450-454-472-301900-
...C-MAN AND BUOY OBSERVATIONS...

STATION/POSITION TIME  TEMP    WIND        PRES    WAVE   SWELL
                       AIR SEA DIR/SP/G            HT/PER HT/PER/DIR
                 (UTC) (F)     (DEG/KT/KT) (MB)    (FT/S) (FT/S/D)
FOLLY BEACH CMAN 1800   69      70/  9/ 11 1014.6F
BUOY 41004       1800   69 77  360/ 14/ 16 1013.1F   3/ 5   2/ 9
BUOY 41008       1800   69 74  360/ 10/ 12 1013.8F   1/ 3
5E ST. MARYS GA  1800      77                N/A     2/ 9
FRYING PAN BUOY  1800   67 72   30/ 16/ 19 1013.9F   4/ 5
BUOY 41025       1700   67     360/ 17/ 21 1014.2F   4/ 5
CAPE LOOKOUT NC  1800   64      30/ 19/ 22 1014.2F
BUOY 41002       1655   77 77  260/  8/ 10 1013.2    2/ 5   2/290/ 5
BUOY 41010       1800   79 82  310/  2/  4 1013.5F   3/ 7   3/110/ 7
BUOY 41012       NOT AVBL
ST AUGUSTINE FL  1800   72      30/  8/  9 1014.0F
CAPERS NEARSHORE 1700   67      40/ 10/ 14   N/A
FRIPP NEARSHORE  NOT AVBL


$$



USA.gov is the U.S. government's official web portal to all federal, state and local government web resources and services.